Theta_e
285 284 284 283 283 282 281 280 280 280 279 279 279 279 278 277 277 276 276 276 276 276 276 276 276 276 275 275 275 275 274 273 271 273 274 275 275 275 276 276 277 277 278
284 284 283 283 282 281 280 279 279 279 279 278 278 278 277 277 276 276 275 275 275 275 276 275 275 277 274 274 273 273 273 273 271 271 273 273 273 274 274 274 276 277 276
284 283 282 282 281 280 279 279 278 278 277 277 277 277 276 276 275 275 275 275 275 275 275 275 275 274 274 273 272 272 272 274 272 271 271 273 273 274 274 274 274 275 277
284 283 282 281 281 280 279 278 278 277 276 276 276 276 275 275 275 275 276 275 275 275 276 275 274 274 274 273 273 273 274 273 273 272 271 272 273 274 274 273 273 275 274
283 282 282 281 281 280 279 278 278 277 276 276 275 274 274 274 275 274 275 275 275 275 275 275 275 275 277 277 275 274 274 271 272 272 271 271 272 272 272 273 273 273 274
283 282 282 282 281 281 280 278 277 276 275 275 274 274 273 274 278 279 277 275 275 275 274 274 274 274 274 277 277 278 277 274 272 271 272 272 272 273 274 273 273 272 270
283 283 282 282 281 280 279 278 276 275 274 274 273 273 273 273 279 280 279 276 275 274 274 274 274 275 273 273 275 277 277 278 279 276 273 273 272 273 274 273 274 274 273
283 282 282 281 281 280 278 277 276 275 274 273 273 272 272 273 278 280 279 275 274 274 273 273 273 273 273 274 273 274 275 276 276 276 274 274 274 276 274 273 272 272 272
282 282 282 282 281 279 278 276 276 274 273 272 272 270 270 271 278 279 278 274 273 273 273 273 273 273 275 278 276 272 273 274 276 277 278 277 277 276 275 272 268 268 268
282 282 282 283 281 279 279 276 274 274 274 273 273 271 270 268 276 278 278 273 268 271 272 273 276 274 277 278 275 273 269 270 272 271 269 270 271 271 273 271 270 267 267
283 282 281 281 281 280 278 275 274 273 272 270 270 269 268 269 268 277 278 274 271 269 270 271 273 276 277 278 279 274 271 275 268 266 266 266 267 268 269 271 271 269 266
280 279 279 279 279 277 276 273 272 271 270 268 267 266 267 269 271 274 277 278 276 270 269 272 273 276 277 278 277 276 276 274 264 263 264 264 265 267 268 269 269 269 270
278 279 279 278 276 275 274 271 269 269 269 267 267 266 266 269 269 275 277 277 278 275 273 273 276 278 278 275 274 274 271 263 261 261 263 265 266 267 268 267 268 269 269
278 274 271 273 270 270 272 271 271 268 268 267 266 266 265 267 268 268 269 269 274 274 274 271 273 275 276 273 267 269 267 265 264 264 264 266 266 265 265 266 265 265 265
270 269 270 270 269 268 268 268 269 266 269 265 265 264 262 263 267 271 269 265 265 269 268 264 265 266 264 263 262 263 264 264 262 263 263 263 263 264 264 265 264 264 263
270 269 269 268 266 266 266 263 273 273 274 275 275 268 262 271 274 275 276 277 278 278 274 265 263 263 262 262 260 260 261 261 262 262 262 262 262 262 262 263 264 263 262
270 268 267 267 266 265 264 265 264 267 277 276 277 277 277 273 276 277 278 278 278 277 270 262 262 261 260 261 260 259 260 261 261 260 260 260 261 261 260 261 262 262 262
265 267 267 266 265 263 263 262 262 262 263 262 268 273 273 274 274 274 275 275 270 268 260 261 259 258 257 257 257 256 257 257 257 257 257 257 258 259 259 259 260 261 261
263 262 261 261 260 261 261 259 259 257 257 260 262 265 265 269 270 271 272 261 259 260 261 258 258 255 256 255 255 254 253 253 253 252 252 254 257 258 258 259 260 260 261
259 261 260 259 258 259 258 258 258 260 261 261 260 260 257 256 254 255 256 257 259 259 259 256 255 251 251 251 251 251 250 249 249 250 250 252 256 258 258 258 259 259 260
257 257 259 257 257 258 260 261 262 261 259 257 256 255 265 259 258 257 257 255 255 256 257 254 252 250 251 251 252 251 251 254 254 249 247 251 253 255 257 258 258 258 261
255 254 255 256 259 260 259 258 257 256 254 252 252 255 264 255 249 247 247 251 252 252 254 254 252 250 252 253 254 255 254 254 252 245 248 250 251 253 255 257 256 260 260
257 257 256 254 254 254 252 250 251 251 251 249 249 250 248 248 248 249 251 251 250 250 251 251 253 254 255 256 256 255 254 253 251 247 247 249 251 252 254 256 256 259 258
255 255 253 250 251 251 250 249 249 250 249 249 247 247 249 249 250 251 252 252 251 251 250 252 256 256 257 255 254 253 252 250 245 247 248 249 252 252 253 255 256 259 257
249 250 250 250 248 249 248 247 248 246 246 248 249 247 248 250 250 251 251 251 251 250 250 255 256 255 254 254 254 251 248 253 251 249 246 245 250 251 253 255 256 258 254
249 249 248 248 247 246 246 247 247 248 249 250 250 250 250 251 252 252 252 251 252 254 256 256 255 254 254 253 252 251 251 254 252 251 250 248 250 252 254 256 256 256 254
Wind_Speed
11 9 11 10 10 8 8 7 8 8 8 8 7 7 6 6 5 5 5 5 4 2 1 1 2 2 1 2 3 1 2 1 5 9 3 8 11 10 10 10 13 12 10
12 12 11 11 10 9 8 7 7 9 7 7 7 6 6 5 5 6 5 3 2 1 1 1 2 2 3 2 1 2 2 3 4 13 11 8 11 11 11 12 10 11 11
12 13 12 12 11 10 9 8 8 9 7 6 6 7 6 6 5 5 4 3 2 1 1 3 3 3 4 2 1 3 3 5 4 7 12 8 10 9 11 11 11 10 10
12 12 13 12 11 11 10 9 9 8 8 7 6 6 6 5 5 5 4 3 2 2 3 3 4 4 4 3 4 4 5 4 6 7 9 11 10 10 10 12 12 9 11
14 13 13 11 10 10 10 9 9 8 7 7 7 6 5 5 4 5 4 4 3 4 4 4 5 5 7 8 4 3 5 4 5 7 10 11 11 11 13 12 13 13 11
14 14 13 13 12 12 10 10 9 8 8 7 7 7 6 4 9 11 7 4 4 4 5 4 4 5 6 9 11 14 11 8 8 8 10 11 15 13 12 11 14 14 14
14 13 13 13 12 12 11 11 10 10 7 7 7 7 7 6 12 12 11 4 4 4 5 5 5 4 4 5 10 14 14 16 16 13 13 12 16 16 17 17 15 13 13
13 13 13 14 13 11 12 12 10 8 10 7 8 7 6 6 13 13 13 5 5 6 5 5 6 6 6 7 8 9 9 6 7 8 11 14 14 15 16 16 18 16 13
13 14 14 14 14 13 14 12 9 8 7 7 5 7 7 5 14 14 10 4 6 5 5 5 6 6 10 13 9 6 5 5 11 20 19 21 26 26 21 12 11 11 12
16 15 13 14 14 15 13 12 7 7 9 7 7 7 7 6 13 14 11 4 4 4 4 6 10 8 14 14 8 4 4 9 11 6 8 12 14 15 21 11 10 10 10
11 12 12 12 14 13 11 7 9 9 6 6 6 4 6 6 7 14 15 6 5 4 5 5 5 12 13 15 15 1 6 15 7 5 7 7 9 9 8 9 11 10 11
10 10 10 11 9 8 11 7 6 8 7 6 5 3 3 4 10 14 17 17 12 6 6 6 6 14 16 15 8 12 18 14 3 5 6 8 8 8 9 11 12 12 11
9 10 10 8 8 8 10 9 6 7 7 7 6 6 4 5 6 17 16 15 17 11 5 8 16 17 11 8 8 13 9 1 2 3 6 8 7 9 11 11 11 12 13
9 7 6 8 7 6 5 6 7 8 7 6 6 7 4 4 6 5 5 5 11 10 11 6 9 13 14 7 2 5 3 2 3 5 7 8 8 8 8 8 10 10 11
6 5 6 4 7 5 3 5 6 2 7 6 6 5 5 5 6 10 9 5 5 10 9 3 2 3 2 3 3 4 3 2 3 4 5 7 8 8 8 8 9 10 10
6 5 5 5 4 4 4 1 10 10 14 14 12 8 4 9 10 13 16 18 19 21 9 4 4 4 5 4 4 4 3 4 3 3 4 6 7 8 9 9 9 9 10
6 6 5 5 5 5 4 5 5 4 12 13 12 13 15 12 16 16 17 18 20 18 6 2 4 5 4 4 4 4 4 3 2 2 4 5 6 7 9 9 9 9 10
4 7 6 5 5 4 5 4 4 4 3 2 6 4 6 10 12 13 15 15 7 6 1 3 4 4 4 4 4 3 3 2 2 3 3 4 5 7 8 8 8 9 10
4 3 4 4 3 4 4 4 3 3 2 1 1 3 5 10 12 13 14 2 1 5 4 4 4 3 4 4 4 4 4 4 3 3 3 3 5 6 7 8 9 12 13
5 8 6 5 4 4 4 4 3 3 3 3 2 3 2 2 1 2 2 3 5 5 5 5 4 4 4 4 4 4 4 3 3 3 3 3 5 5 7 8 8 9 9
4 4 6 5 4 4 3 3 2 2 2 2 3 3 9 5 5 3 3 3 4 5 6 5 4 4 4 4 4 4 4 5 4 3 3 4 3 6 6 7 8 9 8
4 3 3 3 3 3 2 2 2 2 2 2 3 3 12 2 2 3 3 4 4 5 4 4 4 4 4 4 4 5 5 6 4 3 4 4 4 4 6 7 7 8 7
3 4 3 2 2 3 3 2 2 2 2 3 3 3 3 3 3 4 5 5 4 5 5 4 5 5 4 5 5 6 6 6 5 4 4 4 4 4 5 7 7 7 6
3 3 3 2 2 2 2 2 2 3 3 3 3 4 4 4 5 6 6 5 5 5 5 4 6 8 7 6 4 5 5 5 3 5 7 5 7 5 6 7 8 7 6
3 3 3 2 2 2 2 2 3 3 3 3 3 3 3 4 5 5 5 5 5 5 5 5 6 7 9 10 9 8 7 11 7 5 4 5 8 9 9 7 8 7 4
3 3 2 2 2 2 3 3 3 3 4 4 4 4 4 5 5 5 5 5 5 5 7 6 7 10 10 8 9 10 10 12 10 10 7 6 7 8 7 9 8 5 6
Wind_Direction
142 134 136 135 129 127 140 149 147 129 118 114 123 121 123 124 114 113 117 106 101 88 46 58 357 340 2 339 353 351 297 288 274 296 318 321 316 318 312 306 304 306 309
151 144 143 139 139 144 148 151 139 124 121 131 131 135 137 139 137 132 125 110 136 181 306 337 302 329 325 310 300 301 267 255 270 292 308 314 311 311 303 299 301 301 302
152 150 146 149 152 155 156 152 137 127 127 131 140 151 159 158 144 131 140 157 202 237 275 268 285 290 279 263 260 273 255 286 256 276 295 306 301 305 304 299 296 291 288
155 154 158 161 162 163 159 151 141 140 145 158 167 162 163 153 150 160 159 197 229 268 274 270 267 260 264 272 287 266 278 277 283 286 294 301 301 308 295 301 300 295 296
163 165 170 162 160 161 159 154 150 150 156 158 160 170 164 165 174 169 184 204 235 261 263 265 253 244 272 285 282 262 268 273 283 293 297 300 300 307 307 303 296 299 295
174 176 169 166 167 169 164 160 157 155 158 160 178 176 180 190 195 198 193 197 223 242 251 252 258 262 266 286 295 298 297 297 297 300 291 301 303 304 303 302 297 296 300
178 175 174 170 170 174 166 164 170 170 164 172 186 183 193 193 210 210 218 203 216 230 242 258 262 255 255 255 280 289 288 288 289 303 303 302 307 305 301 299 303 309 309
179 176 175 173 175 170 170 180 172 171 175 181 196 195 190 206 216 217 220 207 224 230 237 247 253 258 248 265 264 268 268 268 284 293 296 298 292 307 311 309 304 301 294
185 185 180 176 174 173 184 181 179 173 177 192 184 189 194 202 218 222 223 200 229 240 251 250 254 259 266 284 282 278 283 290 297 303 307 319 313 312 313 313 312 309 304
189 186 178 180 180 184 184 181 175 180 192 188 199 192 190 195 224 228 232 187 216 241 248 253 256 251 268 290 290 268 304 305 304 335 321 320 316 307 317 315 310 305 316
171 175 178 179 180 184 177 172 177 180 167 186 194 178 187 186 221 235 241 224 222 212 227 232 231 259 278 282 287 188 271 308 346 319 320 311 307 305 307 311 315 307 299
148 158 168 174 178 170 172 169 165 168 178 185 185 200 198 197 214 240 245 243 237 218 224 230 228 264 272 274 291 308 307 322 347 326 309 304 303 307 315 311 307 298 287
152 172 177 168 168 165 167 167 158 174 186 194 199 212 212 210 218 241 234 241 245 249 216 237 257 263 275 295 286 296 318 55 281 290 292 294 298 308 309 304 303 298 292
165 160 144 160 154 152 157 170 178 185 192 192 197 213 199 202 213 214 228 247 263 261 266 271 265 269 257 238 251 278 253 218 254 277 289 295 305 307 304 308 307 311 305
129 141 154 149 163 152 158 175 187 195 187 186 208 186 181 218 221 217 214 221 226 238 238 237 191 209 224 248 255 246 236 239 259 266 283 296 303 303 306 310 304 304 301
145 155 163 155 151 148 151 153 221 211 215 219 217 196 224 232 238 243 248 248 245 243 236 208 200 208 216 221 231 243 228 238 251 261 284 292 298 302 304 306 301 303 304
157 149 147 146 156 158 156 175 194 261 217 217 227 234 229 213 236 247 257 267 271 275 272 202 215 211 216 219 228 220 240 229 231 251 279 288 294 296 301 303 303 303 304
136 151 160 168 165 156 164 170 152 167 187 262 345 293 298 284 283 280 280 282 285 293 186 221 227 220 220 223 225 225 236 243 230 241 261 275 282 286 298 298 300 305 305
126 127 123 119 116 124 125 115 117 117 138 179 331 310 313 293 290 289 288 13 317 296 285 270 251 232 229 226 229 229 221 234 221 230 243 258 275 283 289 289 296 301 299
80 102 97 106 104 99 103 114 119 152 191 215 229 245 287 21 322 264 237 250 269 270 271 258 250 237 234 230 234 233 246 242 239 228 238 244 274 276 283 292 296 299 299
103 101 119 111 124 136 141 161 174 186 198 213 228 229 253 226 238 224 251 258 262 268 269 255 244 238 236 234 233 236 233 251 237 223 232 253 256 280 281 285 287 288 300
99 103 84 98 93 103 119 142 159 172 196 212 258 268 291 353 305 254 247 251 252 257 250 250 249 232 231 225 226 238 248 252 240 217 245 251 253 261 278 283 287 284 307
104 115 107 98 102 112 99 121 155 193 232 244 246 254 258 256 255 261 266 265 257 259 250 231 244 257 239 240 235 230 245 246 233 192 228 246 257 262 272 280 282 287 304
83 98 116 127 127 148 178 218 240 233 229 240 253 261 258 254 260 262 262 262 262 260 249 236 247 256 266 252 232 228 238 247 211 211 213 236 262 266 268 269 276 277 284
98 99 106 144 166 200 215 236 242 251 253 251 261 255 257 263 262 259 259 258 258 251 247 243 249 253 250 252 255 246 241 259 254 207 201 210 246 262 260 262 270 281 274
118 133 162 171 204 209 219 240 247 245 249 251 249 250 249 257 257 260 264 258 253 254 262 258 251 246 253 261 257 258 249 250 243 234 218 207 231 246 247 253 254 266 275